GLOBALSTAR M045 [-]

Last updated on July 6, 2021, 3:36 p.m. UTC

1 25676U 99019A   21187.09991861 -.00000095  00000-0 -16903-4 0  9995
2 25676  51.9978  95.1782 0000487  75.9813  13.9522 12.26987971 16608
UTC
Height (km)
Latitude
Longitude
Inclination
Orbital Period
UTC large
Height (km)
Speed (km/s)
/
Latitude / Longitude
Inclination (degrees)
Orbital Period (minutes)
Azimuth
Elevation
Range (km)
Doppler Factor
iOS Compass Heading
iOS Angle